User: anonymous   Login
Location: Caltech
(34.1382°N, 118.1253°W)
Time: 06:27:03
(UTC-07:00)
Language:

Meteor 1-11 Rocket - Orbit

View from above orbital plane
View from above orbital plane
View from above satellite
View from above satellite

Ground track
Ground track

The orbit data is extracted from the following two-line orbital elements,

1 05918U 72022B   16273.01288571  .00000040  00000-0  16632-4 0  9993
2 05918  81.2378 218.5140 0058480 341.8702  18.0379 14.05807638281309
Epoch (UTC): 29 September 2016 00:18:33
Eccentricity: 0.0058480
inclination: 81.2378°
perigee height: 831 km
apogee height: 916 km
right ascension of ascending node: 218.5140°
argument of perigee: 341.8702°
revolutions per day: 14.05807638
mean anomaly at epoch: 18.0379°
orbit number at epoch: 28130

The dashed part of the orbit path shows where the satellite is in the earth's shadow,  

DLR